OPS 4682 DEB, 29061

Orbit data source: Space-Track

OPS 4682 DEB, 29061 is space debris in LEO originally from a launch on Sat, 03 Apr 1965 UTC launched from the Air Force Western Test Range (AFWTR). Debris objects in space refer to the collection of defunct objects orbiting the Earth. Examples of debris include non-operational satellites, rocket bodies, and fragments generated from explosions, collisions, or faulty payload assembly.

Loading next visibility...
Identifier
29061, 1965-027BL
Orbit
LEO
Country
Flag of USUS
Related business
Manufacturer
Unknown
Mission
Spacecraft
Bus & Motor
Unknown
Mass
Unknown
Launch date (UTC)
1965-04-03 (61 years ago)
Launch vehicle
Unknown
Launch site
Air Force Western Test Range (AFWTR)
Object type
Payload
Rocket body
Debris
Shape & HBR
Unknown shape, 0.1 m
Radar Cross Section
Medium (>0.1 m² and <1 m²)

Expand to show TLE details & history
Last TLE update: 15 hours ago

TLE from 15 hours ago
0 OPS 4682 DEB
1 29061U 65027BL  26174.77884437 -.00000050  00000-0 -20535-3 0  9991
2 29061  90.2519  17.7690 0030734 197.6836 294.8823 12.94674901229252
Epoch: 2026-06-23T18:41Z
TLE epoch observation values (Epoch: 2026-06-23T18:41:32.153Z)
Latitude
47.843°
Longitude
5.71634°
Altitude
1,280.661 km
Speed
7.225 km/s
True Right ascension
13h 12m 11s
True Declination
47° 41' 01"
Sunlit
Object was in daylight at epoch
Visualization orbit readout
Latitude
Unknown
Longitude
Unknown
Altitude
Unknown
Speed
Unknown
Apparent Right ascension
Unknown
Apparent Declination
Unknown
Sunlit
N/A
Visualization observer readout
Local Sidereal Time
21:09:50
Azimuth
Unknown
Elevation
Unknown
Doppler factor
Unknown
Orbital elements
Apogee altitude
1,303.694 km
Perigee altitude
1,256.62 km
Semi-major axis
7,658.294 km
Eccentricity
0.00307
Inclination
90.2519°
RAAN
17.769°
Arg. of periapsis
197.6836°
True anomaly
294.56229°
Mean anomaly
294.8823°
Eccentric anomaly
294.72235°
Mean motion
3.23851 °/min
Orbital period
111.16 mins
BSTAR
-0.00020535
Loading maneuver chart data...
Computing Atmospheric mass density...
Loading historical data...
Loading historical data...
Loading historical data...
Loading historical data...
Loading historical data...
Loading historical data...
Loading historical data...

Documentation

Showing up to 5 results
|